QPF
0.00 0.00 0.00 0.00 0.00 0.00 0.00 0.00 0.00 0.00 0.00 0.00 0.00 0.00 0.00 0.00 0.00 0.00 0.00 0.00 0.00 0.00 0.00 0.00 0.00 0.00 0.00 0.00 0.00 0.00 0.00 0.00 0.00 0.00 0.00 0.00 0.00 0.00 0.00 0.00 0.00 0.00 0.00 0.00 0.00
0.00 0.00 0.00 0.00 0.00 0.00 0.00 0.00 0.00 0.00 0.00 0.00 0.00 0.00 0.00 0.00 0.00 0.00 0.00 0.00 0.00 0.00 0.00 0.00 0.00 0.00 0.00 0.00 0.00 0.00 0.00 0.00 0.00 0.00 0.00 0.00 0.00 0.00 0.00 0.00 0.00 0.00 0.00 0.00 0.00
0.00 0.00 0.00 0.00 0.00 0.00 0.00 0.00 0.00 0.00 0.00 0.00 0.00 0.00 0.00 0.00 0.00 0.00 0.00 0.00 0.00 0.00 0.00 0.00 0.00 0.00 0.00 0.00 0.00 0.00 0.00 0.00 0.00 0.00 0.00 0.00 0.00 0.00 0.00 0.00 0.00 0.01 0.00 0.00 0.00
0.00 0.00 0.00 0.00 0.00 0.00 0.00 0.00 0.00 0.00 0.00 0.00 0.00 0.00 0.00 0.00 0.00 0.00 0.00 0.00 0.00 0.00 0.00 0.00 0.00 0.00 0.00 0.00 0.00 0.00 0.00 0.00 0.00 0.00 0.00 0.00 0.00 0.00 0.00 0.00 0.00 0.00 0.00 0.00 0.00
0.00 0.00 0.00 0.00 0.00 0.00 0.00 0.00 0.00 0.00 0.00 0.00 0.00 0.00 0.00 0.00 0.00 0.00 0.00 0.00 0.00 0.00 0.00 0.00 0.00 0.00 0.00 0.00 0.00 0.00 0.00 0.00 0.00 0.00 0.00 0.00 0.00 0.00 0.00 0.00 0.00 0.00 0.00 0.00 0.00
0.00 0.00 0.00 0.00 0.00 0.00 0.00 0.00 0.00 0.00 0.00 0.00 0.00 0.00 0.00 0.00 0.00 0.00 0.00 0.00 0.00 0.00 0.00 0.00 0.00 0.00 0.00 0.00 0.00 0.00 0.00 0.00 0.00 0.00 0.00 0.00 0.00 0.00 0.00 0.00 0.00 0.00 0.00 0.00 0.00
0.00 0.00 0.00 0.00 0.00 0.00 0.00 0.00 0.00 0.00 0.00 0.00 0.00 0.00 0.00 0.00 0.00 0.00 0.00 0.00 0.00 0.00 0.00 0.00 0.00 0.00 0.00 0.00 0.00 0.00 0.00 0.00 0.00 0.00 0.00 0.00 0.00 0.00 0.00 0.00 0.00 0.00 0.00 0.00 0.00
0.00 0.00 0.00 0.00 0.00 0.00 0.00 0.00 0.00 0.00 0.00 0.00 0.00 0.00 0.00 0.00 0.00 0.00 0.00 0.00 0.00 0.00 0.00 0.00 0.00 0.00 0.00 0.00 0.00 0.00 0.00 0.00 0.00 0.00 0.00 0.00 0.00 0.00 0.00 0.00 0.00 0.00 0.00 0.00 0.00
0.00 0.00 0.00 0.00 0.00 0.00 0.00 0.00 0.00 0.00 0.00 0.00 0.00 0.00 0.00 0.00 0.00 0.00 0.00 0.00 0.00 0.00 0.00 0.00 0.00 0.00 0.00 0.00 0.00 0.00 0.00 0.00 0.00 0.00 0.00 0.00 0.00 0.00 0.00 0.00 0.00 0.00 0.00 0.00 0.00
0.00 0.00 0.00 0.00 0.00 0.00 0.00 0.00 0.00 0.00 0.00 0.00 0.00 0.00 0.00 0.00 0.00 0.00 0.00 0.00 0.00 0.00 0.00 0.00 0.00 0.00 0.00 0.00 0.00 0.00 0.00 0.00 0.00 0.00 0.00 0.00 0.00 0.00 0.00 0.00 0.00 0.00 0.00 0.00 0.00
0.00 0.00 0.00 0.00 0.00 0.00 0.00 0.00 0.00 0.00 0.00 0.00 0.00 0.00 0.00 0.00 0.00 0.00 0.00 0.00 0.00 0.00 0.00 0.00 0.00 0.00 0.00 0.00 0.00 0.00 0.00 0.00 0.00 0.00 0.00 0.00 0.00 0.00 0.00 0.00 0.00 0.00 0.00 0.00 0.00
0.00 0.00 0.00 0.00 0.00 0.00 0.00 0.00 0.00 0.00 0.00 0.00 0.00 0.00 0.00 0.00 0.00 0.00 0.00 0.00 0.00 0.00 0.00 0.00 0.00 0.00 0.00 0.00 0.00 0.00 0.00 0.00 0.00 0.00 0.00 0.00 0.00 0.00 0.00 0.00 0.00 0.00 0.00 0.00 0.00
0.00 0.00 0.00 0.00 0.00 0.00 0.00 0.00 0.00 0.00 0.00 0.00 0.00 0.00 0.00 0.00 0.00 0.00 0.00 0.00 0.00 0.00 0.00 0.00 0.00 0.00 0.00 0.00 0.00 0.00 0.00 0.00 0.00 0.00 0.00 0.00 0.00 0.00 0.00 0.00 0.00 0.00 0.00 0.00 0.00
0.00 0.00 0.00 0.00 0.00 0.00 0.00 0.00 0.00 0.00 0.00 0.00 0.00 0.00 0.00 0.00 0.00 0.00 0.00 0.00 0.00 0.00 0.00 0.00 0.00 0.00 0.00 0.00 0.00 0.00 0.00 0.00 0.00 0.00 0.00 0.00 0.00 0.00 0.00 0.00 0.00 0.00 0.00 0.00 0.00
0.00 0.00 0.00 0.00 0.00 0.00 0.00 0.00 0.00 0.00 0.00 0.00 0.00 0.00 0.00 0.00 0.00 0.00 0.00 0.00 0.00 0.00 0.00 0.00 0.00 0.00 0.00 0.00 0.00 0.00 0.00 0.00 0.00 0.00 0.00 0.00 0.00 0.00 0.00 0.00 0.00 0.00 0.00 0.00 0.00
0.00 0.00 0.00 0.00 0.00 0.00 0.00 0.00 0.00 0.00 0.00 0.00 0.00 0.00 0.00 0.00 0.00 0.00 0.00 0.00 0.00 0.00 0.00 0.00 0.00 0.00 0.00 0.00 0.00 0.00 0.00 0.00 0.00 0.00 0.00 0.00 0.00 0.00 0.01 0.00 0.00 0.00 0.00 0.00 0.00
0.00 0.00 0.00 0.00 0.00 0.00 0.00 0.00 0.00 0.00 0.00 0.00 0.00 0.00 0.00 0.00 0.00 0.00 0.00 0.00 0.00 0.00 0.00 0.00 0.00 0.00 0.00 0.00 0.00 0.00 0.00 0.00 0.00 0.00 0.00 0.00 0.00 0.07 0.06 0.00 0.00 0.00 0.00 0.00 0.00
0.00 0.00 0.00 0.00 0.00 0.00 0.00 0.00 0.00 0.00 0.00 0.00 0.00 0.00 0.00 0.00 0.00 0.00 0.00 0.00 0.00 0.00 0.00 0.00 0.00 0.00 0.00 0.00 0.00 0.00 0.00 0.00 0.00 0.00 0.00 0.00 0.00 0.01 0.00 0.00 0.00 0.00 0.00 0.00 0.00
0.00 0.00 0.00 0.00 0.00 0.00 0.00 0.00 0.00 0.00 0.00 0.00 0.00 0.00 0.00 0.00 0.00 0.00 0.00 0.00 0.00 0.00 0.00 0.00 0.00 0.00 0.00 0.00 0.00 0.00 0.00 0.00 0.00 0.00 0.00 0.00 0.00 0.00 0.00 0.00 0.00 0.00 0.00 0.00 0.00
0.00 0.00 0.00 0.00 0.00 0.00 0.00 0.00 0.00 0.00 0.00 0.00 0.00 0.00 0.00 0.00 0.00 0.00 0.00 0.00 0.00 0.00 0.00 0.00 0.00 0.00 0.00 0.00 0.00 0.00 0.00 0.00 0.00 0.00 0.00 0.03 0.04 0.00 0.02 0.00 0.00 0.00 0.00 0.00 0.00
0.00 0.00 0.00 0.00 0.00 0.00 0.00 0.00 0.00 0.00 0.00 0.00 0.00 0.00 0.00 0.00 0.00 0.00 0.00 0.00 0.00 0.00 0.00 0.00 0.00 0.00 0.00 0.00 0.00 0.00 0.00 0.00 0.00 0.00 0.00 0.02 0.02 0.01 0.03 0.00 0.00 0.00 0.00 0.00 0.00
0.00 0.00 0.00 0.00 0.00 0.00 0.00 0.00 0.00 0.00 0.00 0.00 0.00 0.00 0.00 0.00 0.00 0.00 0.00 0.00 0.00 0.00 0.00 0.00 0.00 0.00 0.00 0.00 0.00 0.00 0.00 0.00 0.00 0.00 0.00 0.00 0.01 0.01 0.00 0.00 0.00 0.00 0.00 0.00 0.00
0.00 0.00 0.00 0.00 0.00 0.00 0.00 0.00 0.00 0.00 0.00 0.00 0.00 0.00 0.00 0.00 0.00 0.00 0.00 0.00 0.00 0.00 0.00 0.00 0.00 0.02 0.01 0.00 0.00 0.00 0.00 0.00 0.00 0.00 0.00 0.00 0.00 0.00 0.00 0.00 0.00 0.00 0.00 0.00 0.00
0.00 0.00 0.00 0.00 0.00 0.00 0.00 0.00 0.00 0.00 0.00 0.00 0.00 0.00 0.00 0.00 0.00 0.00 0.00 0.00 0.00 0.00 0.00 0.00 0.00 0.00 0.04 0.06 0.00 0.00 0.00 0.00 0.00 0.00 0.00 0.00 0.00 0.00 0.00 0.00 0.00 0.00 0.00 0.00 0.00
0.00 0.00 0.00 0.00 0.00 0.00 0.00 0.00 0.01 0.00 0.00 0.00 0.00 0.00 0.00 0.00 0.00 0.00 0.00 0.00 0.00 0.00 0.00 0.00 0.00 0.00 0.00 0.01 0.00 0.00 0.00 0.00 0.00 0.00 0.00 0.00 0.00 0.00 0.00 0.00 0.00 0.00 0.00 0.00 0.00
0.00 0.00 0.00 0.00 0.00 0.00 0.00 0.00 0.00 0.00 0.00 0.00 0.00 0.00 0.00 0.00 0.00 0.00 0.00 0.00 0.00 0.00 0.00 0.00 0.00 0.00 0.00 0.00 0.00 0.00 0.00 0.00 0.00 0.00 0.00 0.00 0.00 0.00 0.00 0.00 0.00 0.00 0.00 0.00 0.00
0.00 0.00 0.00 0.00 0.00 0.00 0.00 0.00 0.00 0.00 0.00 0.00 0.00 0.00 0.00 0.00 0.00 0.00 0.00 0.00 0.00 0.00 0.00 0.00 0.00 0.00 0.00 0.00 0.00 0.00 0.00 0.00 0.00 0.00 0.00 0.00 0.00 0.00 0.00 0.00 0.00 0.00 0.00 0.00 0.00
MSLP
1016.70 1016.40 1016.11 1015.83 1015.54 1015.29 1015.02 1014.73 1014.37 1013.93 1013.51 1013.01 1012.44 1011.93 1011.30 1010.70 1009.34 1008.22 1006.39 1006.39 1005.74 1005.78 1005.54 1003.71 1002.89 1002.11 1001.79 1000.86 1000.78 1000.40 1000.10 1000.94 1001.64 1002.30 1003.10 1003.41 1003.50 1004.36 1004.38 1004.49 1005.45 1006.21 1006.55 1007.70 1008.52
1016.63 1016.32 1016.06 1015.83 1015.56 1015.26 1014.97 1014.66 1014.29 1013.86 1013.39 1012.94 1012.35 1011.81 1011.27 1010.77 1008.79 1006.16 1006.38 1005.83 1005.73 1005.83 1004.58 1002.86 1001.76 1001.46 1000.31 1000.32 1000.32 999.70 1000.28 1000.98 1001.31 1002.17 1002.78 1003.29 1003.60 1003.97 1003.74 1004.36 1005.56 1006.48 1007.06 1008.07 1008.76
1016.56 1016.30 1016.04 1015.79 1015.53 1015.24 1014.90 1014.58 1014.22 1013.84 1013.37 1012.85 1012.24 1011.63 1011.12 1010.80 1007.61 1005.10 1005.91 1005.83 1005.77 1005.67 1004.42 1002.97 1002.01 1001.00 999.84 999.60 999.93 999.78 1000.51 1000.97 1001.65 1002.03 1002.36 1003.13 1003.53 1003.65 1003.28 1003.80 1004.87 1006.48 1007.44 1008.17 1008.72
1016.46 1016.23 1016.01 1015.70 1015.39 1015.15 1014.86 1014.52 1014.15 1013.84 1013.40 1012.78 1012.20 1011.53 1010.77 1009.33 1005.74 1005.09 1005.67 1005.68 1005.58 1005.09 1003.82 1002.10 1001.02 1000.10 999.35 999.55 1000.07 1000.44 1001.14 1001.10 1001.61 1002.20 1002.15 1002.68 1003.35 1003.84 1004.09 1004.55 1004.76 1006.41 1007.39 1008.08 1008.64
1016.38 1016.12 1015.89 1015.61 1015.25 1014.96 1014.72 1014.43 1014.07 1013.73 1013.37 1012.80 1012.16 1011.60 1009.88 1007.38 1004.65 1004.83 1005.25 1005.29 1004.84 1004.01 1002.79 1001.79 1000.58 999.96 999.88 999.45 1000.06 1000.25 1001.01 1001.28 1001.67 1001.89 1001.97 1002.70 1003.21 1003.53 1004.47 1004.87 1005.59 1006.54 1007.42 1007.91 1008.22
1016.31 1016.01 1015.73 1015.45 1015.14 1014.83 1014.53 1014.24 1013.92 1013.58 1013.21 1012.73 1012.14 1011.58 1009.70 1006.03 1004.07 1004.28 1004.51 1004.25 1003.76 1003.12 1002.22 1001.65 1001.21 1000.78 999.74 999.67 999.70 1000.68 1000.99 1000.99 1001.23 1001.55 1002.02 1002.10 1003.05 1003.17 1004.73 1005.22 1006.05 1006.80 1007.27 1007.50 1007.84
1016.18 1015.86 1015.56 1015.26 1014.95 1014.67 1014.34 1014.04 1013.71 1013.39 1012.98 1012.53 1012.09 1011.13 1007.94 1004.88 1004.12 1004.18 1004.23 1003.60 1003.34 1003.04 1002.09 1001.98 1001.76 1000.92 1000.02 999.72 1000.41 1000.43 1000.32 1000.64 1001.00 1001.20 1001.30 1001.90 1002.61 1003.30 1004.72 1005.26 1006.01 1006.42 1006.73 1007.20 1007.57
1015.97 1015.64 1015.37 1015.07 1014.73 1014.43 1014.13 1013.79 1013.43 1013.06 1012.64 1012.19 1011.90 1010.33 1006.48 1004.08 1004.02 1004.22 1003.99 1003.48 1003.26 1002.98 1002.73 1002.30 1001.89 1000.95 1000.04 1000.11 1000.35 1000.03 999.99 1000.01 1000.99 1001.30 1001.42 1002.15 1002.29 1003.66 1004.66 1005.03 1005.36 1006.03 1006.37 1006.89 1007.41
1015.75 1015.42 1015.11 1014.85 1014.52 1014.19 1013.86 1013.49 1012.98 1012.56 1012.23 1011.78 1010.95 1008.59 1005.02 1004.86 1004.31 1003.74 1003.48 1002.94 1002.64 1002.63 1002.68 1002.71 1001.97 1000.40 1000.19 999.61 999.35 999.64 1000.15 999.83 1000.57 1001.25 1000.97 1001.62 1001.99 1003.29 1004.20 1004.45 1004.75 1005.53 1006.13 1006.59 1007.18
1015.53 1015.21 1014.88 1014.61 1014.34 1013.94 1013.48 1013.15 1012.32 1012.08 1011.53 1010.16 1009.03 1007.45 1004.56 1003.18 1002.94 1002.89 1002.95 1002.80 1002.52 1002.16 1002.37 1002.20 1001.15 1000.03 999.31 998.73 1000.11 999.24 999.16 1000.06 1000.11 1000.99 1001.18 1000.82 1001.37 1002.55 1003.47 1003.61 1004.16 1004.75 1005.46 1006.27 1006.77
1015.36 1015.02 1014.69 1014.38 1014.16 1013.84 1013.01 1011.69 1011.35 1010.01 1008.45 1005.52 1004.78 1004.04 1003.02 1002.86 1003.20 1002.75 1002.69 1002.81 1002.48 1002.17 1001.52 1001.11 1000.19 999.05 998.75 999.50 1000.22 1000.04 999.86 999.95 1000.33 1000.82 1000.91 1000.54 1000.53 1001.71 1002.60 1002.98 1003.50 1004.11 1004.84 1005.44 1005.89
1015.16 1014.81 1014.54 1014.27 1013.99 1013.78 1013.24 1009.11 1006.74 1006.49 1005.00 1004.82 1004.26 1003.63 1003.46 1002.72 1002.47 1002.27 1002.47 1002.34 1002.05 1001.52 1001.19 1000.80 1000.07 999.44 999.96 1000.30 1000.43 1000.03 999.84 999.58 999.92 1000.58 1000.68 1000.25 1000.29 1000.50 1001.88 1002.31 1002.65 1003.54 1003.98 1004.51 1005.01
1014.99 1014.59 1014.28 1014.11 1013.83 1013.32 1010.13 1007.33 1006.90 1006.29 1004.25 1003.14 1003.07 1002.66 1002.40 1002.68 1001.52 1001.57 1002.18 1001.82 1001.35 1001.09 1000.30 999.88 999.39 999.45 1000.22 1000.15 1000.32 999.81 999.26 999.61 999.60 999.95 1000.29 1000.30 1000.23 1000.49 1001.14 1001.73 1002.24 1002.83 1003.12 1003.50 1004.26
1014.80 1014.41 1014.14 1013.92 1013.90 1009.21 1008.20 1007.03 1006.85 1006.59 1003.41 1002.07 1002.08 1001.77 1001.97 1001.67 1000.83 1000.86 1001.68 1001.43 1001.04 1000.53 1000.28 1000.05 999.53 1000.01 1000.10 1000.14 999.66 999.02 999.49 1000.00 1000.16 999.90 998.81 999.43 999.84 1000.45 1001.09 1001.35 1001.94 1002.12 1002.49 1002.77 1003.69
1014.54 1014.24 1014.01 1014.30 1011.66 1008.20 1006.78 1006.81 1006.55 1006.38 1001.67 1000.77 1000.67 1001.02 1000.86 1000.76 1000.19 1001.01 1001.42 1001.28 1000.68 1000.51 1000.41 999.99 999.78 999.99 999.91 999.64 999.34 999.31 999.97 999.96 999.97 999.47 998.57 998.64 999.13 1000.29 1000.79 1001.07 1001.45 1001.79 1002.11 1002.24 1003.05
1014.18 1013.95 1013.82 1012.81 1011.12 1007.64 1007.30 1006.93 1006.41 1004.35 999.84 999.47 1000.12 1000.50 1000.38 1000.17 1000.04 1000.80 1001.24 1001.15 1000.23 1000.18 1000.48 999.73 999.85 999.95 999.55 999.17 999.80 999.83 999.89 999.79 999.76 999.40 998.35 998.19 998.85 1000.61 1001.85 1000.65 1001.14 1001.45 1001.65 1001.81 1002.32
1013.62 1013.42 1013.38 1010.49 1007.58 1007.32 1007.22 1006.38 1004.12 1000.73 998.97 998.94 999.22 999.58 999.45 999.29 999.72 1000.47 1000.69 1000.65 1000.09 999.93 999.74 999.90 999.84 999.83 999.37 999.23 999.64 999.86 999.30 998.29 998.16 997.91 997.68 997.91 999.15 1001.98 1002.97 1001.20 1000.93 1001.79 1002.02 1002.06 1002.19
1012.91 1012.76 1011.43 1009.86 1008.05 1007.88 1006.91 1005.18 1001.47 998.54 997.71 998.00 998.26 998.73 998.51 998.69 999.10 999.78 999.91 999.67 999.64 998.92 998.17 998.60 998.94 999.21 999.36 999.14 998.52 998.54 998.50 997.35 997.66 998.02 1000.59 999.30 999.64 1002.22 1002.27 1001.52 1001.95 1002.18 1002.24 1002.04 1002.31
1012.75 1011.10 1009.16 1007.84 1008.77 1007.94 1005.89 1002.73 999.38 997.74 996.91 997.08 997.61 997.78 997.80 998.32 998.32 998.84 998.90 998.65 998.56 999.00 997.86 997.21 997.51 997.98 998.51 998.68 999.09 998.34 998.43 997.84 997.37 998.78 1000.63 1000.70 999.88 1001.47 1001.72 1001.90 1002.33 1002.60 1002.73 1002.58 1002.57
1011.04 1008.18 1006.80 1007.07 1007.57 1007.11 1004.79 1000.93 998.71 998.47 997.38 996.92 996.82 997.07 996.98 997.70 998.22 998.22 998.20 998.10 998.04 998.61 998.03 997.57 997.42 997.91 998.40 999.10 998.92 998.43 998.15 997.73 997.86 998.90 999.61 1001.92 1002.76 1000.73 1001.76 1002.23 1002.46 1003.05 1003.45 1004.01 1004.40
1010.66 1006.25 1006.41 1006.90 1007.13 1005.59 1002.68 1000.07 999.44 998.97 998.71 997.02 996.35 996.65 996.51 997.12 997.60 997.56 997.79 998.14 998.20 998.67 998.80 998.03 998.96 998.70 999.04 998.65 998.02 998.60 998.35 997.93 998.35 999.78 999.67 1001.71 1003.16 1002.15 999.16 1000.08 1001.65 1003.02 1004.01 1004.61 1004.97
1008.11 1004.83 1006.16 1006.47 1005.57 1003.57 1001.16 999.89 1000.39 998.94 998.84 997.61 996.99 996.30 996.18 996.79 996.99 996.97 997.36 997.88 998.97 998.73 999.12 998.92 998.53 999.00 998.50 998.77 998.95 998.43 998.03 998.20 997.53 998.56 999.20 1000.45 1000.74 1000.48 998.52 1001.26 1001.45 1003.49 1004.34 1005.05 1005.72
1006.78 1005.23 1005.97 1005.57 1003.22 1001.59 1000.35 1000.12 999.94 998.78 998.14 997.89 997.22 996.20 996.20 996.66 997.06 996.80 997.77 999.38 999.77 999.44 999.49 999.21 999.12 1001.32 1000.32 999.57 999.57 999.12 998.71 998.93 998.79 998.66 999.16 999.77 1001.21 1000.57 1000.81 1001.88 1003.49 1004.34 1005.28 1006.09 1006.69
1006.56 1004.02 1004.95 1004.80 1002.94 1001.10 1000.03 999.76 999.22 999.30 998.42 997.78 996.93 996.75 996.65 996.71 997.06 997.39 998.04 999.76 1000.18 999.96 1000.79 1000.56 999.31 999.55 1002.48 1004.03 1002.44 999.78 999.84 999.76 999.72 999.31 998.95 998.79 999.96 1000.53 1001.52 1002.73 1004.14 1005.24 1006.13 1006.86 1007.46
1006.15 1002.38 1002.21 1002.59 1002.00 1000.87 1000.29 999.69 999.41 998.55 998.71 998.37 997.72 997.09 996.81 996.79 997.04 997.38 997.92 999.72 1000.34 1001.10 1000.97 1000.57 999.89 1000.16 1002.26 1003.08 1002.25 1000.66 1000.22 1000.09 1000.04 1000.27 1000.32 999.94 999.59 999.79 1000.97 1002.40 1003.84 1005.47 1006.70 1007.59 1008.11
1006.65 1004.41 1002.92 1001.49 1001.09 1000.93 1000.73 1000.09 999.49 998.58 998.34 998.02 997.48 997.13 996.61 996.67 996.72 996.50 997.41 998.61 999.41 1000.67 1000.43 1000.04 1000.38 1001.02 1001.48 1000.78 1000.98 1000.99 1000.65 1000.47 1000.42 1000.53 1000.88 1000.93 1000.72 1000.68 1001.10 1002.15 1003.46 1004.98 1006.81 1007.78 1008.29
1008.01 1005.98 1004.75 1002.16 1001.01 1000.75 999.89 999.67 999.43 999.58 999.36 998.28 997.13 997.29 997.27 997.14 996.73 996.56 997.30 998.14 998.72 999.67 999.88 1000.01 999.92 1000.60 1000.79 1000.68 1000.58 1000.68 1000.32 1000.33 1000.35 1000.98 1001.25 1001.34 1001.74 1002.14 1002.36 1003.03 1003.77 1004.79 1006.38 1007.65 1008.32
Thickness
5741 5745 5749 5752 5755 5758 5761 5764 5767 5771 5775 5779 5784 5790 5797 5805 5819 5831 5838 5846 5855 5859 5863 5874 5877 5880 5882 5877 5882 5884 5844 5819 5821 5817 5817 5838 5829 5838 5847 5834 5830 5828 5823 5821 5822
5740 5743 5747 5750 5753 5757 5760 5763 5767 5770 5775 5779 5784 5790 5796 5803 5822 5836 5848 5854 5857 5859 5863 5865 5865 5875 5873 5872 5874 5869 5839 5831 5851 5840 5828 5834 5831 5832 5834 5829 5820 5819 5827 5824 5819
5738 5741 5745 5748 5752 5755 5759 5762 5766 5770 5774 5778 5784 5790 5797 5801 5819 5837 5850 5854 5857 5860 5868 5874 5876 5873 5873 5884 5873 5872 5836 5852 5848 5851 5848 5834 5831 5843 5837 5825 5827 5812 5814 5817 5814
5736 5740 5743 5746 5751 5754 5757 5761 5765 5768 5773 5778 5783 5790 5798 5811 5794 5844 5850 5854 5858 5864 5868 5871 5874 5867 5871 5860 5872 5843 5852 5857 5852 5851 5849 5836 5842 5831 5833 5828 5843 5829 5824 5818 5811
5734 5738 5741 5745 5749 5753 5756 5759 5764 5768 5771 5776 5782 5788 5806 5808 5822 5852 5853 5856 5863 5867 5864 5863 5865 5871 5852 5871 5867 5855 5851 5857 5857 5855 5855 5851 5837 5835 5827 5839 5839 5831 5823 5817 5816
5733 5736 5740 5744 5748 5752 5756 5759 5763 5767 5771 5775 5781 5787 5798 5793 5853 5855 5857 5861 5864 5865 5867 5869 5862 5872 5871 5868 5866 5860 5857 5858 5861 5856 5855 5848 5840 5846 5832 5840 5829 5824 5820 5821 5820
5731 5735 5739 5743 5747 5751 5755 5760 5764 5767 5771 5775 5779 5788 5799 5811 5851 5854 5855 5859 5868 5866 5859 5872 5873 5865 5876 5864 5872 5866 5852 5858 5857 5860 5858 5862 5834 5831 5838 5839 5826 5825 5825 5824 5823
5729 5734 5738 5742 5747 5750 5755 5760 5764 5768 5773 5777 5779 5790 5794 5846 5850 5847 5854 5855 5868 5872 5868 5876 5877 5869 5870 5878 5865 5856 5862 5837 5851 5856 5862 5852 5817 5836 5842 5835 5828 5827 5827 5825 5823
5728 5733 5737 5741 5746 5751 5755 5760 5766 5771 5774 5778 5785 5795 5797 5837 5827 5846 5855 5847 5860 5866 5870 5871 5868 5866 5869 5856 5853 5857 5818 5840 5838 5858 5860 5848 5826 5842 5847 5840 5833 5830 5829 5827 5824
5727 5731 5736 5740 5745 5750 5756 5761 5769 5773 5779 5788 5796 5786 5814 5816 5837 5847 5858 5857 5848 5854 5848 5848 5854 5854 5866 5863 5803 5837 5846 5840 5839 5847 5852 5852 5842 5845 5847 5846 5838 5837 5834 5828 5826
5724 5729 5734 5739 5744 5749 5760 5773 5776 5780 5791 5808 5811 5811 5821 5836 5843 5838 5851 5844 5847 5840 5822 5847 5839 5842 5865 5854 5850 5849 5846 5839 5847 5855 5847 5851 5855 5848 5850 5850 5843 5841 5837 5834 5833
5722 5727 5732 5737 5742 5747 5754 5782 5801 5804 5797 5814 5817 5819 5826 5836 5814 5831 5851 5825 5826 5814 5836 5832 5823 5858 5858 5851 5844 5848 5843 5845 5855 5857 5850 5854 5852 5868 5854 5852 5854 5845 5842 5841 5841
5719 5725 5730 5735 5740 5748 5776 5793 5808 5811 5796 5812 5821 5820 5825 5830 5821 5825 5837 5833 5824 5818 5836 5830 5850 5866 5845 5844 5835 5847 5848 5842 5845 5855 5857 5849 5840 5849 5859 5860 5860 5858 5857 5857 5848
5716 5722 5727 5732 5738 5780 5778 5800 5805 5808 5789 5801 5810 5823 5830 5835 5822 5853 5850 5837 5827 5821 5834 5835 5861 5842 5838 5832 5852 5840 5861 5847 5838 5835 5829 5863 5806 5839 5848 5849 5852 5858 5858 5860 5853
5714 5718 5724 5726 5751 5771 5791 5800 5806 5797 5769 5816 5820 5852 5843 5828 5839 5833 5857 5840 5820 5824 5831 5825 5835 5831 5828 5841 5862 5845 5855 5846 5844 5841 5854 5854 5838 5831 5853 5840 5846 5855 5860 5865 5861
5713 5716 5721 5732 5747 5780 5788 5795 5794 5767 5773 5809 5825 5816 5819 5831 5835 5838 5834 5850 5854 5834 5834 5839 5857 5846 5847 5864 5854 5858 5846 5847 5848 5845 5827 5857 5854 5826 5818 5847 5848 5859 5865 5868 5867
5713 5717 5721 5743 5764 5779 5785 5781 5765 5775 5825 5807 5811 5823 5824 5823 5826 5825 5819 5817 5814 5802 5806 5826 5831 5848 5860 5842 5853 5845 5838 5822 5818 5826 5827 5875 5853 5802 5791 5852 5858 5850 5856 5866 5870
5714 5718 5733 5744 5763 5771 5774 5765 5757 5814 5818 5835 5829 5827 5818 5831 5828 5825 5820 5814 5834 5838 5838 5815 5803 5837 5853 5844 5847 5848 5848 5835 5796 5809 5776 5857 5830 5797 5831 5859 5859 5859 5861 5866 5866
5711 5728 5744 5758 5754 5765 5763 5758 5792 5819 5840 5829 5829 5815 5819 5829 5834 5827 5825 5827 5840 5841 5829 5835 5831 5865 5862 5863 5853 5844 5828 5868 5848 5837 5800 5812 5855 5849 5853 5850 5851 5850 5853 5857 5863
5726 5745 5752 5759 5760 5760 5757 5768 5807 5818 5833 5840 5813 5828 5815 5822 5819 5824 5825 5845 5842 5849 5863 5851 5827 5856 5855 5854 5855 5849 5867 5838 5847 5792 5798 5784 5754 5808 5824 5830 5842 5840 5840 5842 5844
5721 5744 5753 5758 5758 5753 5755 5787 5796 5820 5825 5829 5834 5826 5835 5825 5828 5827 5829 5841 5852 5843 5851 5857 5823 5827 5841 5833 5837 5837 5835 5849 5846 5821 5803 5765 5758 5810 5824 5839 5840 5840 5838 5837 5837
5739 5740 5753 5759 5738 5761 5773 5793 5776 5812 5826 5831 5838 5844 5842 5839 5832 5837 5834 5841 5849 5852 5827 5848 5843 5813 5833 5854 5858 5853 5847 5846 5836 5822 5832 5817 5817 5833 5828 5846 5844 5835 5835 5834 5832
5737 5743 5753 5756 5741 5763 5788 5788 5799 5811 5821 5823 5827 5852 5857 5839 5822 5847 5837 5840 5841 5841 5836 5849 5831 5743 5789 5834 5843 5835 5847 5843 5845 5846 5821 5808 5789 5846 5843 5832 5829 5824 5822 5819 5819
5741 5736 5741 5748 5763 5769 5781 5785 5794 5814 5817 5831 5838 5847 5842 5837 5846 5831 5830 5828 5836 5839 5818 5832 5838 5815 5736 5731 5781 5821 5823 5829 5826 5815 5824 5836 5823 5830 5824 5820 5816 5812 5811 5809 5807
5744 5761 5765 5741 5756 5770 5780 5788 5787 5799 5819 5828 5823 5834 5835 5824 5830 5826 5837 5820 5827 5809 5824 5829 5814 5826 5787 5779 5799 5817 5817 5819 5811 5814 5798 5817 5825 5835 5824 5818 5814 5808 5802 5795 5792
5727 5739 5758 5765 5774 5771 5760 5778 5787 5806 5814 5815 5821 5835 5837 5828 5832 5827 5832 5826 5816 5820 5821 5835 5803 5809 5796 5824 5817 5801 5811 5812 5812 5810 5805 5807 5806 5838 5835 5828 5816 5804 5792 5785 5783
5728 5744 5743 5751 5770 5768 5780 5787 5793 5799 5810 5825 5837 5835 5830 5813 5843 5845 5851 5848 5842 5821 5817 5818 5818 5798 5784 5815 5809 5783 5803 5806 5808 5808 5801 5785 5796 5811 5810 5807 5805 5799 5789 5779 5775